TimeCST,TemperatureF,Dew PointF,Humidity,Sea Level PressureIn,VisibilityMPH,Wind Direction,Wind SpeedMPH,Gust SpeedMPH,PrecipitationIn,Events,Conditions,WindDirDegrees,DateUTC
12:56 AM,57.0,46.0,67,30.19,10.0,East,5.8,-,N/A,,Overcast,90,2013-11-06 06:56:00
1:56 AM,57.0,48.0,72,30.17,10.0,East,5.8,-,N/A,,Mostly Cloudy,90,2013-11-06 07:56:00
2:56 AM,55.9,48.0,75,30.17,10.0,ENE,4.6,-,N/A,,Clear,70,2013-11-06 08:56:00
3:56 AM,57.0,50.0,77,30.17,10.0,East,3.5,-,N/A,,Mostly Cloudy,90,2013-11-06 09:56:00
4:56 AM,55.9,51.1,84,30.17,10.0,East,4.6,-,N/A,,Partly Cloudy,100,2013-11-06 10:56:00
5:56 AM,55.9,52.0,87,30.18,10.0,ESE,4.6,-,N/A,,Mostly Cloudy,110,2013-11-06 11:56:00
6:24 AM,57.2,53.6,88,30.19,10.0,ESE,6.9,-,N/A,,Overcast,120,2013-11-06 12:24:00
6:56 AM,59.0,54.0,83,30.19,10.0,ESE,8.1,-,N/A,,Overcast,120,2013-11-06 12:56:00
7:56 AM,61.0,55.9,83,30.20,10.0,ESE,11.5,-,N/A,,Overcast,120,2013-11-06 13:56:00
8:56 AM,63.0,57.0,81,30.20,10.0,SE,9.2,16.1,N/A,,Overcast,130,2013-11-06 14:56:00
9:31 AM,66.2,57.2,73,30.21,10.0,SE,6.9,16.1,N/A,,Overcast,130,2013-11-06 15:31:00
9:56 AM,66.0,59.0,78,30.21,10.0,SSE,8.1,-,N/A,,Overcast,150,2013-11-06 15:56:00
10:56 AM,68.0,59.0,73,30.19,10.0,East,4.6,-,N/A,,Overcast,100,2013-11-06 16:56:00
11:12 AM,69.8,60.8,73,30.19,10.0,Variable,5.8,-,N/A,,Overcast,0,2013-11-06 17:12:00
11:56 AM,70.0,60.1,71,30.15,10.0,SSE,4.6,-,N/A,,Mostly Cloudy,160,2013-11-06 17:56:00
12:04 PM,69.8,60.8,73,30.15,10.0,SSE,6.9,-,N/A,,Scattered Clouds,160,2013-11-06 18:04:00
12:56 PM,72.0,61.0,68,30.12,10.0,Variable,5.8,-,N/A,,Clear,0,2013-11-06 18:56:00
1:19 PM,73.4,60.8,65,30.12,10.0,South,6.9,-,N/A,,Mostly Cloudy,180,2013-11-06 19:19:00
1:35 PM,73.4,60.8,65,30.12,10.0,Variable,5.8,-,N/A,,Overcast,0,2013-11-06 19:35:00
1:42 PM,73.4,60.8,65,30.12,10.0,SE,5.8,-,N/A,,Overcast,130,2013-11-06 19:42:00
1:56 PM,73.9,61.0,64,30.11,10.0,SSE,4.6,-,N/A,,Overcast,160,2013-11-06 19:56:00
2:10 PM,75.2,62.6,65,30.12,10.0,SE,4.6,-,N/A,,Overcast,140,2013-11-06 20:10:00
2:56 PM,73.9,62.1,66,30.11,10.0,South,3.5,-,N/A,,Mostly Cloudy,180,2013-11-06 20:56:00
3:51 PM,73.4,62.6,69,30.11,10.0,SSE,3.5,-,N/A,,Mostly Cloudy,150,2013-11-06 21:51:00
3:56 PM,73.9,62.1,66,30.10,10.0,SSE,3.5,-,N/A,,Mostly Cloudy,150,2013-11-06 21:56:00
4:42 PM,73.4,62.6,69,30.11,10.0,Calm,Calm,-,N/A,,Overcast,0,2013-11-06 22:42:00
4:56 PM,72.0,62.1,71,30.10,10.0,Calm,Calm,-,N/A,,Overcast,0,2013-11-06 22:56:00
5:56 PM,69.1,63.0,81,30.10,10.0,Calm,Calm,-,N/A,,Mostly Cloudy,0,2013-11-06 23:56:00
6:56 PM,66.9,63.0,87,30.11,10.0,Calm,Calm,-,N/A,,Clear,0,2013-11-07 00:56:00
7:56 PM,66.0,62.1,87,30.10,10.0,Calm,Calm,-,N/A,,Clear,0,2013-11-07 01:56:00
8:56 PM,64.9,62.1,90,30.09,10.0,South,3.5,-,N/A,,Clear,170,2013-11-07 02:56:00
9:56 PM,64.9,61.0,87,30.10,10.0,SSE,3.5,-,N/A,,Clear,160,2013-11-07 03:56:00
10:56 PM,63.0,61.0,93,30.09,10.0,Calm,Calm,-,N/A,,Mostly Cloudy,0,2013-11-07 04:56:00
11:56 PM,64.0,61.0,90,30.08,10.0,South,3.5,-,N/A,,Mostly Cloudy,190,2013-11-07 05:56:00